TimeMDT,TemperatureF,Dew PointF,Humidity,Sea Level PressureIn,VisibilityMPH,Wind Direction,Wind SpeedMPH,Gust SpeedMPH,PrecipitationIn,Events,Conditions,WindDirDegrees,DateUTC
12:56 AM,41.0,19.9,43,29.74,-9999.0,NW,40.3,58.7,N/A,,Unknown,310,2012-10-18 06:56:00
1:56 AM,41.0,21.0,45,29.75,-9999.0,WNW,41.4,55.2,N/A,,Unknown,300,2012-10-18 07:56:00
2:56 AM,39.9,23.0,51,29.77,-9999.0,NW,44.9,51.8,N/A,,Unknown,310,2012-10-18 08:56:00
3:56 AM,39.9,25.0,55,29.77,-9999.0,NW,44.9,63.3,N/A,,Unknown,310,2012-10-18 09:56:00
4:56 AM,39.9,25.0,55,29.80,-9999.0,WNW,47.2,56.4,N/A,,Unknown,300,2012-10-18 10:56:00
5:56 AM,39.0,26.1,60,29.81,-9999.0,NW,49.5,61.0,N/A,,Unknown,310,2012-10-18 11:56:00
6:56 AM,37.9,26.1,62,29.85,-9999.0,NW,40.3,54.1,N/A,,Unknown,310,2012-10-18 12:56:00
7:56 AM,37.0,26.1,65,29.89,-9999.0,NW,39.1,51.8,N/A,,Unknown,310,2012-10-18 13:56:00
8:56 AM,37.0,27.0,67,29.93,-9999.0,WNW,36.8,55.2,N/A,,Unknown,300,2012-10-18 14:56:00
9:56 AM,37.9,27.0,65,29.94,-9999.0,NW,42.6,56.4,N/A,,Unknown,310,2012-10-18 15:56:00
10:56 AM,39.0,28.0,65,29.96,-9999.0,NW,41.4,54.1,N/A,,Unknown,310,2012-10-18 16:56:00
11:56 AM,42.1,28.0,58,29.96,-9999.0,NW,39.1,52.9,N/A,,Unknown,310,2012-10-18 17:56:00
12:56 PM,45.0,28.9,53,29.94,-9999.0,NW,40.3,48.3,N/A,,Unknown,320,2012-10-18 18:56:00
1:56 PM,48.0,28.9,48,29.92,-9999.0,NW,40.3,49.5,N/A,,Unknown,320,2012-10-18 19:56:00
2:56 PM,50.0,28.9,44,29.95,-9999.0,NW,35.7,46.0,N/A,,Unknown,310,2012-10-18 20:56:00
3:56 PM,48.9,28.0,44,29.96,-9999.0,NW,36.8,44.9,N/A,,Unknown,320,2012-10-18 21:56:00
4:56 PM,48.0,28.0,46,29.98,-9999.0,NW,33.4,43.7,N/A,,Unknown,320,2012-10-18 22:56:00
5:56 PM,44.1,28.0,53,30.01,-9999.0,NW,25.3,-,N/A,,Unknown,310,2012-10-18 23:56:00
6:56 PM,41.0,27.0,57,30.04,-9999.0,NW,16.1,-,N/A,,Unknown,310,2012-10-19 00:56:00
7:56 PM,37.0,27.0,67,30.04,-9999.0,WNW,15.0,-,N/A,,Unknown,300,2012-10-19 01:56:00
8:56 PM,30.9,24.1,76,30.06,-9999.0,WNW,12.7,-,N/A,,Unknown,300,2012-10-19 02:56:00
9:56 PM,32.0,24.1,73,30.05,-9999.0,WNW,16.1,-,N/A,,Unknown,300,2012-10-19 03:56:00
10:56 PM,28.9,21.9,75,30.04,-9999.0,NW,16.1,-,N/A,,Unknown,310,2012-10-19 04:56:00
11:56 PM,28.9,21.0,72,30.02,-9999.0,NW,15.0,-,N/A,,Unknown,320,2012-10-19 05:56:00